PulseSat

PulseSat

BD-17

Last updated on Jan. 16, 2019, 2:57 a.m. UTC

1 40549U 15019A   19015.29540292 -.00000180  00000-0  00000+0 0  9996
2 40549  53.7662 327.1682 0038276 191.3122 158.2036  1.00286316 13902
UTC
Height (km)
Latitude
Longitude
Inclination
Orbital Period

Next 30 passes for location: Hong Kong

Rise time Rise Azimuth (degrees) Set time Set Azimuth (degrees) Duration Max altitude (degrees)

No matching passes for this satellites

PulseSat

PulseSat is the new satellites software and hardware trackering solution by Pulsely.
Satellite Two Line Element Set source: US Air Force Space Command

Download PulseSat for iOS
© 2017 Pulsely Limited